TimeCDT,TemperatureF,Dew PointF,Humidity,Sea Level PressureIn,VisibilityMPH,Wind Direction,Wind SpeedMPH,Gust SpeedMPH,PrecipitationIn,Events,Conditions,WindDirDegrees,DateUTC
12:53 AM,63.0,43.0,48,29.79,10.0,SE,11.5,-,N/A,,Clear,140,2012-10-04 05:53:00
1:53 AM,62.1,42.1,48,29.77,10.0,SSE,9.2,-,N/A,,Clear,150,2012-10-04 06:53:00
2:53 AM,64.9,39.0,39,29.75,10.0,South,16.1,24.2,N/A,,Clear,190,2012-10-04 07:53:00
3:53 AM,55.9,39.0,53,29.78,8.0,WSW,23.0,28.8,N/A,,Clear,240,2012-10-04 08:53:00
4:50 AM,50.0,39.2,66,29.83,10.0,WSW,16.1,21.9,N/A,,Mostly Cloudy,250,2012-10-04 09:50:00
4:53 AM,50.0,39.9,68,29.82,10.0,WSW,16.1,31.1,N/A,,Mostly Cloudy,250,2012-10-04 09:53:00
5:53 AM,48.9,39.9,71,29.85,10.0,WSW,13.8,20.7,N/A,,Overcast,250,2012-10-04 10:53:00
6:53 AM,48.0,39.0,71,29.88,10.0,WSW,17.3,26.5,N/A,,Overcast,250,2012-10-04 11:53:00
7:53 AM,46.0,37.0,71,29.91,10.0,WSW,20.7,31.1,N/A,,Overcast,250,2012-10-04 12:53:00
8:28 AM,44.6,35.6,71,29.92,10.0,WSW,12.7,26.5,N/A,,Mostly Cloudy,250,2012-10-04 13:28:00
8:53 AM,45.0,34.0,65,29.94,10.0,West,17.3,27.6,N/A,,Mostly Cloudy,260,2012-10-04 13:53:00
9:41 AM,44.6,33.8,66,29.95,10.0,WSW,18.4,29.9,N/A,,Scattered Clouds,250,2012-10-04 14:41:00
9:51 AM,44.6,32.0,61,29.96,10.0,West,17.3,31.1,N/A,,Mostly Cloudy,270,2012-10-04 14:51:00
9:53 AM,44.1,32.0,63,29.96,10.0,West,16.1,31.1,N/A,,Mostly Cloudy,270,2012-10-04 14:53:00
10:53 AM,44.1,32.0,63,29.99,10.0,West,19.6,29.9,N/A,,Overcast,260,2012-10-04 15:53:00
11:53 AM,46.9,33.1,59,30.01,10.0,West,16.1,29.9,N/A,,Overcast,260,2012-10-04 16:53:00
12:25 PM,48.2,32.0,54,30.01,10.0,West,20.7,29.9,N/A,,Overcast,260,2012-10-04 17:25:00
12:53 PM,48.0,32.0,54,30.04,10.0,West,25.3,36.8,N/A,,Overcast,270,2012-10-04 17:53:00
1:53 PM,48.9,32.0,52,30.05,10.0,WNW,27.6,38.0,N/A,,Overcast,290,2012-10-04 18:53:00
2:53 PM,48.9,30.9,50,30.06,10.0,WNW,23.0,32.2,N/A,,Overcast,290,2012-10-04 19:53:00
3:53 PM,48.9,30.9,50,30.09,10.0,West,18.4,29.9,N/A,,Overcast,270,2012-10-04 20:53:00
5:53 PM,46.0,30.0,54,30.12,10.0,WNW,18.4,26.5,N/A,,Overcast,290,2012-10-04 22:53:00
6:53 PM,46.0,28.9,51,30.13,10.0,West,19.6,29.9,N/A,,Overcast,280,2012-10-04 23:53:00
7:53 PM,45.0,28.0,52,30.15,10.0,WNW,17.3,27.6,N/A,,Overcast,290,2012-10-05 00:53:00
8:53 PM,45.0,28.9,53,30.16,10.0,West,17.3,21.9,N/A,,Overcast,280,2012-10-05 01:53:00
9:53 PM,44.1,28.9,55,30.17,10.0,West,16.1,27.6,N/A,,Partly Cloudy,280,2012-10-05 02:53:00
10:53 PM,44.1,30.0,58,30.18,10.0,WNW,12.7,-,N/A,,Mostly Cloudy,290,2012-10-05 03:53:00
11:53 PM,43.0,30.0,60,30.16,10.0,WNW,17.3,26.5,N/A,,Mostly Cloudy,290,2012-10-05 04:53:00